TimeICT,TemperatureF,Dew PointF,Humidity,Sea Level PressureIn,VisibilityMPH,Wind Direction,Wind SpeedMPH,Gust SpeedMPH,PrecipitationIn,Events,Conditions,WindDirDegrees,DateUTC
12:00 AM,82.4,73.4,74,29.74,5.6,Calm,Calm,-,N/A,,Partly Cloudy,0,2013-03-29 17:00:00
12:30 AM,82.4,73.4,74,29.74,5.6,Calm,Calm,-,N/A,,Partly Cloudy,0,2013-03-29 17:30:00
1:00 AM,80.6,73.4,79,29.71,5.6,Calm,Calm,-,N/A,,Partly Cloudy,0,2013-03-29 18:00:00
7:00 AM,80.6,77.0,89,29.77,5.0,Calm,Calm,-,N/A,,Partly Cloudy,0,2013-03-30 00:00:00
7:30 AM,82.4,77.0,84,29.77,5.6,Variable,3.5,-,N/A,,Partly Cloudy,0,2013-03-30 00:30:00
8:00 AM,86.0,77.0,74,29.80,5.6,Variable,1.2,-,N/A,,Partly Cloudy,0,2013-03-30 01:00:00
8:30 AM,86.0,77.0,74,29.80,-9999.0,Variable,1.2,-,N/A,,Clear,0,2013-03-30 01:30:00
9:00 AM,87.8,75.2,66,29.80,-9999.0,Variable,1.2,-,N/A,,Clear,0,2013-03-30 02:00:00
9:30 AM,89.6,73.4,59,29.80,-9999.0,Variable,1.2,-,N/A,,Clear,0,2013-03-30 02:30:00
10:00 AM,91.4,73.4,55,29.80,-9999.0,Variable,1.2,-,N/A,,Clear,0,2013-03-30 03:00:00
10:30 AM,93.2,73.4,52,29.80,5.6,Variable,3.5,-,N/A,,Scattered Clouds,0,2013-03-30 03:30:00
11:00 AM,93.2,73.4,52,29.77,5.6,SSE,8.1,-,N/A,,Scattered Clouds,150,2013-03-30 04:00:00
11:30 AM,95.0,71.6,47,29.77,5.6,SW,4.6,-,N/A,,Scattered Clouds,220,2013-03-30 04:30:00
12:00 PM,96.8,71.6,44,29.74,5.6,South,4.6,-,N/A,,Scattered Clouds,170,2013-03-30 05:00:00
12:30 PM,96.8,71.6,44,29.71,5.6,SSE,4.6,-,N/A,,Scattered Clouds,160,2013-03-30 05:30:00
1:00 PM,98.6,71.6,42,29.71,5.6,South,6.9,-,N/A,,Scattered Clouds,170,2013-03-30 06:00:00
1:30 PM,98.6,71.6,42,29.68,5.6,Variable,2.3,-,N/A,,Scattered Clouds,0,2013-03-30 06:30:00
2:00 PM,96.8,69.8,41,29.68,5.6,South,11.5,-,N/A,,Scattered Clouds,180,2013-03-30 07:00:00
2:30 PM,96.8,69.8,41,29.65,5.6,South,9.2,-,N/A,,Scattered Clouds,180,2013-03-30 07:30:00
3:00 PM,98.6,68.0,37,29.65,6.2,WSW,9.2,-,N/A,,Scattered Clouds,240,2013-03-30 08:00:00
3:30 PM,96.8,66.2,37,29.65,6.2,South,8.1,-,N/A,,Scattered Clouds,180,2013-03-30 08:30:00
4:00 PM,98.6,64.4,32,29.65,6.2,South,8.1,-,N/A,,Scattered Clouds,170,2013-03-30 09:00:00
4:30 PM,98.6,64.4,32,29.62,6.2,Calm,Calm,-,N/A,,Scattered Clouds,0,2013-03-30 09:30:00
5:00 PM,96.8,64.4,34,29.62,6.2,Calm,Calm,-,N/A,,Scattered Clouds,0,2013-03-30 10:00:00
5:30 PM,96.8,66.2,37,29.65,6.2,Calm,Calm,-,N/A,,Scattered Clouds,0,2013-03-30 10:30:00
6:00 PM,95.0,66.2,39,29.65,6.2,Calm,Calm,-,N/A,,Scattered Clouds,0,2013-03-30 11:00:00
6:30 PM,93.2,68.0,44,29.65,6.2,Calm,Calm,-,N/A,,Partly Cloudy,0,2013-03-30 11:30:00
7:00 PM,91.4,68.0,46,29.65,5.6,Calm,Calm,-,N/A,,Partly Cloudy,0,2013-03-30 12:00:00
7:30 PM,91.4,69.8,49,29.68,5.6,Calm,Calm,-,N/A,,Partly Cloudy,0,2013-03-30 12:30:00
8:00 PM,89.6,71.6,55,29.68,5.6,Calm,Calm,-,N/A,,Partly Cloudy,0,2013-03-30 13:00:00
8:30 PM,87.8,73.4,62,29.68,5.6,Calm,Calm,-,N/A,,Partly Cloudy,0,2013-03-30 13:30:00
9:00 PM,87.8,73.4,62,29.68,5.6,Calm,Calm,-,N/A,,Partly Cloudy,0,2013-03-30 14:00:00
9:30 PM,87.8,73.4,62,29.71,5.6,Calm,Calm,-,N/A,,Partly Cloudy,0,2013-03-30 14:30:00
10:00 PM,87.8,75.2,66,29.71,5.6,Calm,Calm,-,N/A,,Partly Cloudy,0,2013-03-30 15:00:00
10:30 PM,87.8,75.2,66,29.71,5.6,Calm,Calm,-,N/A,,Partly Cloudy,0,2013-03-30 15:30:00
11:00 PM,86.0,75.2,70,29.71,5.6,Calm,Calm,-,N/A,,Partly Cloudy,0,2013-03-30 16:00:00
11:30 PM,84.2,75.2,74,29.71,5.6,Calm,Calm,-,N/A,,Partly Cloudy,0,2013-03-30 16:30:00